Snyder, TX

1:09 PM CDT on October 20, 2017 (GMT -0500)
Winston

Weather History for KSNK - May, 2012

Change the Weather History Date:

Saturday, May 12, 2012

  Actual Average Record
Temperature  
Mean Temperature 63 °F -  
Max Temperature 70 °F 85 °F 99 °F (1933)
Min Temperature 56 °F 55 °F 39 °F (1931)
Degree Days  
Heating Degree Days 2    
Growing Degree Days 13 (Base 50)    
Moisture  
Dew Point 55 °F    
Average Humidity 78    
Maximum Humidity 92    
Minimum Humidity 55    
Precipitation  
Precipitation 0.00 in - - ()
Sea Level Pressure  
Sea Level Pressure 30.20 in    
Wind  
Wind Speed 11 mph (North)    
Max Wind Speed 15 mph    
Max Gust Speed 23 mph    
Visibility 10 miles    
Events      
Averages and records for this station are not official NWS values.
T = Trace of Precipitation, MM = Missing Value Source: NWS Daily Summary

Daily Weather History Graph

Daily Weather History Graph

Search for Another Location

Airport or City:

Trip Planner

Search our weather history database for the weather conditions in past years. The results will help you decide how hot, cold, wet, or windy it might be!

Date:

Astronomy

May. 12, 2012 Rise Set
Actual Time 6:46 AM CDT 8:33 PM CDT
Civil Twilight 6:19 AM CDT 9:00 PM CDT
Nautical Twilight 5:47 AM CDT 9:33 PM CDT
Astronomical Twilight 5:12 AM CDT 10:08 PM CDT
Moon 1:55 AM CDT (5/12) 1:19 PM CDT (5/12)
Length of Visible Light 14h 41m
Length of Day
13h 47m
Waning Gibbous, 52% of the Moon is Illuminated
May 12
Waning Gibbous
May 12
Last Quarter
May 20
New
May 28
First Quarter
Jun 4
Full

Hourly Weather History & Observations

Time (CDT) Temp. Dew Point Humidity Pressure Visibility Wind Dir Wind Speed Gust Speed Precip Events Conditions
12:15 AM 59.4 °F 56.7 °F 91% 30.12 in 10.0 mi North 15.0 mph - N/A   Overcast
12:35 AM 59.4 °F 56.7 °F 91% 30.13 in 10.0 mi NNW 12.7 mph - N/A   Overcast
12:55 AM 57.9 °F 55.2 °F 91% 30.13 in 10.0 mi North 12.7 mph - N/A   Mostly Cloudy
1:15 AM 57.4 °F 54.9 °F 91% 30.13 in 10.0 mi North 12.7 mph - N/A   Overcast
1:35 AM 57.4 °F 54.7 °F 91% 30.14 in 10.0 mi NNW 11.5 mph - N/A   Overcast
1:55 AM 57.4 °F 54.7 °F 91% 30.15 in 10.0 mi North 12.7 mph 18.4 mph N/A   Overcast
2:15 AM 57.6 °F 54.5 °F 90% 30.14 in 10.0 mi North 11.5 mph - N/A   Overcast
2:35 AM 57.4 °F 54.5 °F 90% 30.14 in 10.0 mi NNW 11.5 mph - N/A   Overcast
2:55 AM 57.2 °F 54.1 °F 89% 30.14 in 10.0 mi North 10.4 mph - N/A   Overcast
3:15 AM 57.2 °F 54.1 °F 89% 30.14 in 10.0 mi NNW 11.5 mph - N/A   Overcast
3:35 AM 57.0 °F 54.0 °F 89% 30.14 in 10.0 mi NNW 11.5 mph - N/A   Overcast
3:55 AM 56.8 °F 53.8 °F 89% 30.15 in 10.0 mi North 12.7 mph - N/A   Overcast
4:15 AM 56.8 °F 54.1 °F 91% 30.14 in 10.0 mi North 9.2 mph - N/A   Overcast
4:35 AM 56.8 °F 54.5 °F 92% 30.15 in 10.0 mi NNW 8.1 mph - N/A   Overcast
4:55 AM 56.8 °F 54.0 °F 90% 30.15 in 10.0 mi North 10.4 mph - N/A   Overcast
5:15 AM 56.8 °F 53.8 °F 89% 30.16 in 10.0 mi NNW 10.4 mph - N/A   Overcast
5:35 AM 56.8 °F 53.8 °F 89% 30.16 in 10.0 mi NNW 10.4 mph - N/A   Overcast
5:55 AM 56.8 °F 53.8 °F 89% 30.17 in 10.0 mi NNW 10.4 mph - N/A   Overcast
6:15 AM 56.8 °F 53.8 °F 89% 30.17 in 10.0 mi NNW 13.8 mph - N/A   Overcast
6:35 AM 56.8 °F 53.8 °F 89% 30.18 in 10.0 mi North 13.8 mph - N/A   Overcast
6:55 AM 56.8 °F 53.6 °F 89% 30.19 in 10.0 mi NNW 12.7 mph - N/A   Overcast
7:15 AM 56.8 °F 53.6 °F 89% 30.20 in 10.0 mi NNW 12.7 mph - N/A   Overcast
7:35 AM 56.8 °F 53.6 °F 89% 30.21 in 10.0 mi NNW 10.4 mph - N/A   Overcast
7:55 AM 56.8 °F 53.6 °F 89% 30.23 in 10.0 mi North 11.5 mph - N/A   Overcast
8:15 AM 56.8 °F 53.1 °F 87% 30.23 in 10.0 mi NNW 11.5 mph - N/A   Overcast
8:35 AM 57.0 °F 52.9 °F 86% 30.24 in 10.0 mi NNW 13.8 mph - N/A   Overcast
8:55 AM 57.2 °F 52.5 °F 84% 30.24 in 10.0 mi North 12.7 mph - N/A   Overcast
9:15 AM 58.8 °F 53.6 °F 83% 30.24 in 10.0 mi NNW 11.5 mph - N/A   Overcast
9:55 AM 59.4 °F 52.7 °F 79% 30.24 in 10.0 mi North 12.7 mph 17.3 mph N/A   Overcast
10:35 AM 59.5 °F 52.5 °F 78% 30.25 in 10.0 mi NNW 9.2 mph - N/A   Overcast
10:55 AM 60.8 °F 53.6 °F 77% 30.26 in 10.0 mi North 11.5 mph - N/A   Overcast
11:15 AM 60.8 °F 53.6 °F 77% 30.26 in 10.0 mi North 8.1 mph - N/A   Overcast
11:35 AM 61.3 °F 54.0 °F 77% 30.26 in 10.0 mi North 11.5 mph - N/A   Overcast
11:55 AM 62.1 °F 55.0 °F 78% 30.26 in 10.0 mi North 10.4 mph - N/A   Overcast
12:15 PM 62.8 °F 55.6 °F 77% 30.26 in 10.0 mi North 11.5 mph 18.4 mph N/A   Overcast
12:35 PM 62.8 °F 55.6 °F 77% 30.25 in 10.0 mi North 11.5 mph - N/A   Overcast
12:55 PM 63.1 °F 55.6 °F 76% 30.25 in 10.0 mi North 10.4 mph - N/A   Overcast
1:15 PM 64.2 °F 55.6 °F 73% 30.25 in 10.0 mi NNE 13.8 mph 17.3 mph N/A   Overcast
1:35 PM 64.8 °F 55.8 °F 73% 30.25 in 10.0 mi North 5.8 mph - N/A   Overcast
1:55 PM 65.1 °F 55.6 °F 71% 30.24 in 10.0 mi North 10.4 mph - N/A   Overcast
2:15 PM 66.0 °F 56.1 °F 70% 30.24 in 10.0 mi NNE 13.8 mph 20.7 mph N/A   Overcast
2:35 PM 67.8 °F 56.7 °F 67% 30.23 in 10.0 mi North 13.8 mph 19.6 mph N/A   Mostly Cloudy
2:55 PM 69.1 °F 57.6 °F 67% 30.23 in 10.0 mi North 12.7 mph 17.3 mph N/A   Mostly Cloudy
3:15 PM 69.4 °F 56.3 °F 63% 30.23 in 10.0 mi NNE 10.4 mph 17.3 mph N/A   Mostly Cloudy
3:35 PM 69.4 °F 55.6 °F 61% 30.22 in 10.0 mi North 15.0 mph 18.4 mph N/A   Scattered Clouds
3:55 PM 69.4 °F 55.0 °F 60% 30.21 in 10.0 mi North 11.5 mph 18.4 mph N/A   Scattered Clouds
4:15 PM 69.4 °F 54.7 °F 59% 30.21 in 10.0 mi North 11.5 mph - N/A   Scattered Clouds
4:35 PM 70.3 °F 55.4 °F 59% 30.20 in 10.0 mi NNE 11.5 mph 23.0 mph N/A   Scattered Clouds
4:55 PM 69.8 °F 55.0 °F 59% 30.20 in 10.0 mi NNE 10.4 mph 16.1 mph N/A   Scattered Clouds
5:15 PM 70.0 °F 54.1 °F 57% 30.20 in 10.0 mi NNE 8.1 mph 16.1 mph N/A   Scattered Clouds
5:35 PM 70.2 °F 55.2 °F 59% 30.19 in 10.0 mi NE 13.8 mph - N/A   Scattered Clouds
5:55 PM 70.0 °F 54.9 °F 59% 30.19 in 10.0 mi NE 11.5 mph 17.3 mph N/A   Scattered Clouds
6:15 PM 70.3 °F 53.8 °F 56% 30.19 in 10.0 mi NNE 9.2 mph - N/A   Clear
6:35 PM 70.9 °F 54.1 °F 55% 30.19 in 10.0 mi NE 10.4 mph - N/A   Scattered Clouds
6:55 PM 70.2 °F 53.8 °F 56% 30.19 in 10.0 mi NE 13.8 mph - N/A   Scattered Clouds
7:15 PM 69.6 °F 53.1 °F 56% 30.19 in 10.0 mi NNE 10.4 mph - N/A   Scattered Clouds
7:35 PM 69.4 °F 54.1 °F 58% 30.19 in 10.0 mi ENE 11.5 mph - N/A   Clear
7:55 PM 69.4 °F 56.8 °F 64% 30.20 in 10.0 mi ENE 8.1 mph - N/A   Clear
8:15 PM 69.4 °F 57.9 °F 67% 30.20 in 10.0 mi ENE 8.1 mph - N/A   Clear
8:35 PM 67.6 °F 56.8 °F 68% 30.22 in 10.0 mi ENE 5.8 mph - N/A   Clear
8:55 PM 65.1 °F 56.7 °F 74% 30.23 in 10.0 mi ENE 5.8 mph - N/A   Clear
9:15 PM 63.7 °F 56.5 °F 77% 30.23 in 10.0 mi ENE 5.8 mph - N/A   Clear
9:35 PM 62.6 °F 56.3 °F 80% 30.23 in 10.0 mi ENE 4.6 mph - N/A   Clear
9:55 PM 61.9 °F 56.3 °F 82% 30.24 in 10.0 mi ENE 4.6 mph - N/A   Clear
10:15 PM 61.7 °F 56.5 °F 83% 30.25 in 10.0 mi ENE 3.5 mph - N/A   Clear
10:35 PM 61.2 °F 56.3 °F 84% 30.25 in 10.0 mi ENE 4.6 mph - N/A   Clear
10:55 PM 60.8 °F 56.1 °F 85% 30.26 in 10.0 mi ENE 3.5 mph - N/A   Clear
11:15 PM 60.8 °F 55.8 °F 83% 30.26 in 10.0 mi ENE 4.6 mph - N/A   Clear
11:35 PM 60.8 °F 55.4 °F 82% 30.27 in 10.0 mi NE 4.6 mph - N/A   Clear
11:55 PM 60.8 °F 55.4 °F 82% 30.27 in 10.0 mi Calm Calm - N/A   Clear